Location: Alando
(42.3054°N, 9.2895°E)
Time: 03:57:59
(UTC+00:00)

Cosmos 1703 - Pass Details

Date: 09 April 2020
Orbit: 523 x 541 km, 82.5° (Epoch: 02 June)

Event Time Altitude Azimuth Distance (km) Brightness Sun altitude
Rises 19:00:21 0° 350° (N) 2,706 7.3 -11.8°
Reaches altitude 10° 19:02:30 10° 349° (N) 1,811 6.4 -12.2°
Maximum altitude 19:06:29 78° 264° (W) 559 3.4 -12.9°
Drops below altitude 10° 19:10:26 10° 178° (S) 1,798 5.7 -13.5°
Enters shadow 19:12:10 - 177° (S) 2,514 6.4 -13.8°
